• Join FlightAware (Why Join?)
  • Login
  • US Flag 
10:32AM EDT


 

Airport Tracker/Info


-or-


 

Live Flight TrackerFlight Track Log ✈ N111KC ✈ 13-Jan-2014 ✈ KECP - KORL

Flight Track Log - Related Links

Times and Time Zones

All times are in EST time to prevent confusion due to time zone crossing. See the N111KC flight status page for this flight to view local times or setup timezone preferences in your user account.

Time Position Orientation Groundspeed Altitude Reporting Facility
EST Latitude Longitude Course Direction KTS MPH feet Rate Location/Type
10:14AM 30.2308 -85.4638 108° East  Level Estimated
10:15AM 30.2154 -85.4061 107° East  Level FlightAware Approximate
10:16AM 30.1999 -85.3483 107° East  Level FlightAware Approximate
10:17AM 30.2270 -85.2858 63° Northeast  Level FlightAware Approximate
10:18AM 30.2540 -85.2233 63° Northeast  Level FlightAware Approximate
10:19AM 30.2277 -85.1603 94° East  Level Estimated
10:20AM 30.2407 -85.0920 78° East  Level FlightAware Approximate
10:21AM 30.2537 -85.0237 78° East  Level FlightAware Approximate
10:22AM 30.2666 -84.9554 78° East  Level FlightAware Approximate
10:22AM 30.2386 -85.1214 111° Southeast 227 261 17,900  Level Jacksonville Center
10:23AM 30.2385 -84.8935 98° East  Level Estimated
10:23AM 30.2419 -85.0517 87° East 227 261 18,600  Level Jacksonville Center
10:24AM 30.2506 -84.8250 78° East  Level FlightAware Approximate
10:24AM 30.2453 -84.9797 87° East 227 261 19,300  Level Jacksonville Center
10:25AM 30.2218 -84.7635 90° East  Level Estimated
10:25AM 30.2486 -84.9075 87° East 227 261 20,100  Level Jacksonville Center
10:26AM 30.1930 -84.7020 111° Southeast  Level Estimated
10:26AM 30.2517 -84.8356 87° East 227 261 20,700  Level Jacksonville Center
10:27AM 30.2592 -84.7564 84° East 227 261 21,000 120 Climbing Jacksonville Center
10:28AM 30.2708 -84.6747 81° East 246 283 21,000 -60 Level Jacksonville Center
10:29AM 30.2678 -84.5931 92° East 256 295 20,900  Descending Jacksonville Center
10:30AM 30.2350 -84.5300 121° Southeast 234 269 21,000  Climbing Jacksonville Center
10:31AM 30.1983 -84.4667 124° Southeast 234 269 20,900 -60 Descending Jacksonville Center
10:32AM 30.1658 -84.3989 119° Southeast 234 269 20,900  Level Jacksonville Center
10:33AM 30.1311 -84.3358 122° Southeast 234 269 20,900  Level Jacksonville Center
10:34AM 30.0961 -84.2731 123° Southeast 234 269 20,900  Level Jacksonville Center
10:35AM 30.0678 -84.2031 115° Southeast 234 269 20,900  Level Jacksonville Center
10:36AM 30.0392 -84.1356 116° Southeast 234 269 21,000  Climbing Jacksonville Center
10:37AM 30.0106 -84.0681 116° Southeast 234 269 21,000  Level Jacksonville Center
10:38AM 29.9819 -83.9981 115° Southeast 234 269 21,000  Level Jacksonville Center
10:39AM 29.9533 -83.9281 115° Southeast 234 269 21,000  Level Jacksonville Center
10:40AM 29.9206 -83.8608 119° Southeast 234 269 21,000 -60 Level Jacksonville Center
10:41AM 29.8897 -83.7933 118° Southeast 234 269 20,900  Descending Jacksonville Center
10:42AM 29.8567 -83.7283 120° Southeast 234 269 21,000  Climbing Jacksonville Center
10:43AM 29.8236 -83.6636 120° Southeast 234 269 21,000  Level Jacksonville Center
10:44AM 29.7906 -83.6008 121° Southeast 234 269 21,000  Level Jacksonville Center
10:45AM 29.7575 -83.5314 119° Southeast 234 269 21,000 -120 Level Jacksonville Center
10:46AM 29.7286 -83.4642 116° Southeast 234 269 20,800 -420 Descending Jacksonville Center
10:47AM 29.6978 -83.3900 116° Southeast 240 276 20,200 -900 Descending Jacksonville Center
10:48AM 29.6644 -83.3133 117° Southeast 251 289 19,000 -1,200 Descending Jacksonville Center
10:49AM 29.6356 -83.2367 113° Southeast 256 295 17,900 -900 Descending Jacksonville Center
10:50AM 29.6022 -83.1553 115° Southeast 268 308 17,200 -540 Descending Jacksonville Center
10:51AM 29.5733 -83.0861 116° Southeast 261 300 16,900 -120 Descending Jacksonville Center
10:52AM 29.5400 -83.0167 119° Southeast 251 289 17,000  Climbing Jacksonville Center
10:53AM 29.5086 -82.9475 118° Southeast 242 278 17,000 -60 Level Jacksonville Center
10:54AM 29.4814 -82.8711 112° Southeast 242 278 16,900 -300 Descending Jacksonville Center
10:55AM 29.4503 -82.7994 116° Southeast 242 278 16,500 -900 Descending Jacksonville Center
10:56AM 29.4231 -82.7519 123° Southeast 258 297 15,400 -1,440 Descending Jacksonville Center
10:56AM 29.4106 -82.7281 121° Southeast 242 278 15,100 -1,200 Descending Jacksonville Center
10:57AM 29.3728 -82.6519 120° Southeast 261 300 13,900 -1,320 Descending Jacksonville Center
10:58AM 29.3414 -82.5806 117° Southeast 275 316 12,600 -1,440 Descending Jacksonville Center
10:58AM 29.3392 -82.5711 105° East 266 306 12,500 -1,440 Descending Jacksonville Center
10:59AM 29.3078 -82.4972 116° Southeast 271 312 11,100 -1,440 Descending Jacksonville Center
10:59AM 29.3036 -82.4950 155° Southeast 264 304 11,000 -1,200 Descending Jacksonville Center
11:00AM 29.2678 -82.4283 122° Southeast 259 298 9,900 -1,200 Descending Jacksonville Center
11:00AM 29.2636 -82.4236 135° Southeast 256 295 9,800 -900 Descending Jacksonville Center
11:01AM 29.2278 -82.3572 122° Southeast 248 285 8,900 -840 Descending Jacksonville Center
11:02AM 29.2044 -82.2883 111° Southeast 248 285 8,300 -720 Descending Jacksonville Center
11:02AM 29.2003 -82.2789 117° Southeast 249 287 8,200 -720 Descending Jacksonville Center
11:03AM 29.1769 -82.2194 114° Southeast 243 280 7,600 -600 Descending Jacksonville Center
11:03AM 29.1686 -82.2125 144° Southeast 237 273 7,600 -540 Level Jacksonville Center
11:04AM 29.1331 -82.1653 131° Southeast 237 273 7,100 -600 Descending Jacksonville Center
11:04AM 29.1267 -82.1581 135° Southeast 233 268 7,000 -120 Descending Jacksonville Center
11:05AM 29.0950 -82.1061 125° Southeast 232 267 7,000  Level Jacksonville Center
11:05AM 29.0867 -82.0989 143° Southeast 220 253 7,000  Level Jacksonville Center
11:08AM 29.0000 -81.9667 127° Southeast 214 246 7,000  Level Orlando TRACON
11:09AM 28.9667 -81.9167 127° Southeast 213 245 7,000  Level Orlando TRACON
11:10AM 28.9167 -81.8667 139° Southeast 215 247 7,000  Level Orlando TRACON
11:11AM 28.8833 -81.8167 127° Southeast 213 245 7,000  Level Orlando TRACON
11:12AM 28.8500 -81.7667 127° Southeast 215 247 7,000 -480 Level Orlando TRACON
11:13AM 28.8000 -81.7333 150° Southeast 226 260 6,100 -900 Descending Orlando TRACON
11:14AM 28.7333 -81.7000 156° South 231 266 5,300 -600 Descending Orlando TRACON
11:15AM 28.6833 -81.6667 150° Southeast 220 253 4,900 -240 Descending Orlando TRACON
11:16AM 28.6333 -81.6333 150° Southeast 205 236 4,900 -600 Level Orlando TRACON
11:17AM 28.5833 -81.6000 150° Southeast 237 273 3,800 -1,200 Descending Orlando TRACON
11:18AM 28.5500 -81.5333 120° Southeast 215 247 2,600 -960 Descending Orlando TRACON
11:19AM 28.5167 -81.4833 127° Southeast 196 226 1,900 -540 Descending Orlando TRACON
11:20AM 28.5167 -81.4333 90° East 167 192 1,600 -480 Descending Orlando TRACON
11:21AM 28.5167 -81.3833 90° East 118 136 1,000 -660 Descending Orlando TRACON
11:22AM 28.5333 -81.3500 60° Northeast 110 127 300 -660 Descending Orlando TRACON
11:24AM 28.5455 -81.3329 83° East  Level Estimated
11:31AM 28.5455 -81.3329 83° East  Level Estimated
11:32AM 28.5455 -81.3329 83° East  Level Estimated
11:33AM 28.5455 -81.3329 83° East  Level Estimated